Theta_e
286 286 286 286 286 287 286 286 286 286 285 286 286 286 286 285 285 284 284 284 285 284 283 283 282 282 282 281 281 281 280 280 280 280 280 280 280 280 279 279 279 278 278 277 277 277 276 275 275 275 275 275 275 275 275 274 274 274 274 274 276 276
286 286 286 285 286 286 286 285 285 285 285 285 285 285 284 284 284 284 283 283 284 283 282 282 282 282 282 281 281 280 280 280 280 280 280 280 280 279 279 278 278 277 277 277 276 276 275 275 275 274 274 274 274 274 275 274 273 273 273 273 274 276
286 285 285 285 285 285 285 285 285 285 285 285 285 284 283 284 283 283 283 283 283 282 282 281 281 281 281 281 280 280 279 279 280 280 279 279 279 278 278 277 277 277 276 276 276 275 275 274 274 274 273 273 273 273 274 273 273 272 272 273 272 273
285 284 284 283 284 284 285 285 285 284 284 285 284 284 284 283 283 283 283 282 282 281 281 281 281 281 281 280 280 279 279 279 279 279 279 278 278 278 278 277 277 277 276 276 275 275 274 274 273 273 272 272 272 273 275 273 272 272 272 272 272 272
286 285 284 284 284 284 285 284 285 284 284 284 283 284 283 283 283 283 283 282 281 281 281 281 281 280 280 280 279 279 279 279 278 278 278 278 277 277 277 277 276 276 276 275 275 274 273 273 272 272 272 272 271 271 271 272 271 272 271 272 272 272
285 284 283 283 283 283 284 284 284 284 284 284 283 283 282 283 283 282 282 281 281 281 280 280 280 280 279 279 279 279 278 278 278 278 277 277 277 277 276 276 276 276 275 275 274 273 273 273 272 272 272 272 271 271 271 271 271 271 271 272 272 272
284 284 284 283 283 284 284 284 284 283 283 283 283 283 283 283 282 282 282 281 280 280 280 280 280 279 279 279 278 278 278 277 277 277 276 276 276 276 276 275 275 275 275 275 273 273 272 272 272 272 271 271 271 271 271 271 271 272 272 272 272 275
285 284 284 284 283 284 284 284 284 283 283 283 283 283 282 282 282 282 281 281 280 280 280 280 279 279 279 278 278 277 277 277 277 276 276 277 276 275 275 275 275 276 275 274 273 273 272 272 271 271 271 270 271 271 271 271 271 272 272 272 272 272
284 284 284 284 283 283 284 284 283 283 283 282 282 282 282 282 282 281 281 281 280 280 280 279 279 279 278 278 277 277 276 276 276 277 276 277 276 275 275 276 276 275 274 273 272 272 272 271 271 270 270 270 270 270 271 271 271 272 272 272 272 272
285 284 284 283 283 283 283 284 284 283 283 282 282 282 282 282 282 281 281 280 280 280 280 280 279 278 278 277 277 276 276 276 276 277 277 276 276 275 275 275 275 274 274 273 272 272 271 270 270 270 269 270 270 271 271 271 271 271 272 272 272 272
285 284 284 284 283 282 282 282 283 283 283 283 282 282 282 282 282 281 281 280 280 280 280 279 279 278 277 277 277 276 276 276 276 276 277 276 276 276 275 275 275 273 273 272 272 271 271 271 271 271 270 270 271 271 271 271 270 270 270 271 271 271
286 285 285 284 283 283 282 283 283 284 283 283 283 282 283 282 282 281 280 280 280 280 279 279 278 278 278 277 277 277 276 276 276 276 276 276 276 275 275 274 273 272 272 272 272 271 271 271 271 273 276 276 272 271 272 271 270 270 270 270 270 270
287 285 284 284 284 283 283 283 283 284 283 283 283 283 283 282 281 281 280 280 280 280 279 279 279 278 278 278 278 277 276 276 275 275 276 275 275 274 273 273 273 273 272 272 271 270 270 270 271 276 278 278 278 273 271 270 270 270 270 270 269 269
286 285 285 285 284 284 284 283 283 283 283 284 283 283 283 282 282 281 281 281 280 280 279 279 279 279 278 278 278 277 277 276 276 275 275 274 274 273 273 273 273 272 272 271 270 269 269 270 274 277 279 280 279 277 272 270 269 269 271 271 270 270
287 287 286 285 285 285 285 285 284 283 284 284 284 283 282 282 281 281 281 281 281 280 280 280 279 279 278 278 277 277 276 276 275 275 274 274 274 273 272 272 272 271 271 270 269 269 269 269 276 278 279 280 280 280 276 273 272 272 271 272 271 271
288 288 287 287 286 286 286 285 284 284 284 284 284 283 282 282 281 281 281 281 281 280 280 280 279 279 278 278 277 276 276 275 275 275 274 274 273 273 273 272 271 271 270 270 269 269 268 268 274 278 280 280 280 280 278 274 274 273 272 272 272 272
288 288 287 287 286 286 285 285 285 284 284 284 283 283 282 282 281 281 281 281 280 280 279 279 279 279 278 278 277 276 275 275 274 274 274 273 273 272 272 271 271 270 269 268 268 268 268 268 275 278 280 280 280 279 278 274 274 273 272 273 273 273
288 288 288 288 287 286 286 285 285 284 283 284 283 283 283 282 281 281 281 281 280 280 280 280 280 279 278 277 277 276 276 275 274 274 273 273 273 272 272 271 270 270 268 268 267 267 267 267 276 277 279 280 280 279 276 274 273 272 272 272 272 272
289 289 288 287 287 286 286 286 285 284 283 283 283 283 282 282 281 281 281 281 280 280 280 280 280 279 278 277 276 276 276 275 274 274 273 272 273 272 271 270 269 268 268 267 267 267 267 266 273 277 278 279 280 278 274 273 272 272 271 271 270 270
288 288 288 287 287 287 286 286 285 284 283 282 282 282 281 281 281 281 281 281 280 280 280 280 279 279 278 277 276 275 276 275 275 274 273 272 272 271 270 269 267 267 267 267 266 267 266 266 270 276 278 279 280 278 272 272 271 270 270 269 270 269
288 287 287 287 286 286 285 285 285 284 283 282 281 281 281 281 281 281 281 281 281 280 280 279 279 279 278 277 276 276 276 276 275 274 272 272 271 270 268 267 267 266 265 266 266 269 267 265 268 275 277 279 280 278 272 271 269 268 268 268 269 269
286 286 286 286 286 284 284 284 284 283 283 282 281 280 281 281 282 282 281 281 280 280 280 279 279 279 278 278 277 276 277 276 273 272 271 270 269 268 267 267 267 266 266 265 265 265 267 265 264 267 277 278 279 279 273 271 269 268 268 268 268 267
286 286 285 285 284 284 284 284 284 283 282 281 280 281 282 282 281 280 280 280 279 279 279 279 279 279 279 278 278 277 274 273 272 270 269 268 267 266 265 266 266 265 265 264 265 264 265 266 265 265 274 277 279 279 277 271 270 269 267 266 267 267
283 283 282 282 283 283 284 284 283 283 281 281 281 282 283 281 280 280 279 278 279 279 279 279 279 279 279 277 275 273 273 271 271 270 269 267 266 266 266 265 265 264 264 263 263 263 264 265 267 264 271 276 278 279 280 273 270 270 267 267 267 268
282 282 281 280 281 282 283 283 282 281 281 281 282 283 280 280 279 278 278 278 278 278 278 279 278 278 277 275 274 274 273 270 269 268 267 267 266 266 265 265 264 264 263 263 263 263 263 263 264 270 267 272 277 278 279 279 275 275 271 268 268 268
281 280 278 278 279 280 282 283 282 280 280 282 282 278 276 277 277 277 278 278 278 278 277 277 277 277 276 275 274 273 272 270 269 267 267 267 266 266 265 265 264 263 263 263 264 263 263 263 263 267 272 270 274 277 279 280 280 278 273 271 269 269
279 278 277 276 276 276 279 280 281 278 279 280 277 276 276 276 276 277 277 277 277 277 277 276 276 275 275 274 273 273 272 269 268 267 266 265 266 266 266 266 264 264 264 264 264 265 264 263 263 263 267 273 274 276 278 279 280 280 279 274 272 272
277 277 277 275 274 275 275 276 279 279 279 274 276 275 276 275 275 276 277 276 276 276 275 274 274 273 273 272 273 273 273 271 268 269 266 266 266 266 266 266 264 264 264 264 265 265 265 264 263 263 263 267 272 274 276 277 279 279 279 278 275 275
276 274 274 276 273 273 273 273 276 277 273 272 274 274 273 274 276 276 274 275 275 273 273 275 274 272 270 270 270 270 271 270 269 269 267 266 266 266 266 266 265 265 264 265 265 266 264 263 263 264 264 264 265 268 271 274 275 278 278 277 276 277
276 275 274 276 275 273 273 274 274 273 269 270 272 271 272 273 274 274 273 272 270 271 270 273 270 270 270 269 269 270 269 268 269 269 268 267 267 267 267 267 266 266 266 266 267 264 262 263 263 264 264 265 265 267 269 270 271 273 274 274 275 274
273 273 274 274 273 271 271 271 270 269 271 270 267 270 272 272 270 270 268 268 268 269 268 269 269 270 270 268 267 269 270 270 268 269 270 270 267 269 269 268 268 268 268 267 266 265 264 264 264 266 269 267 270 267 267 267 269 270 271 273 275 272
273 272 273 273 272 270 271 270 269 269 270 268 266 268 271 270 269 267 268 269 269 269 267 268 267 267 268 267 267 266 266 268 272 270 268 268 271 273 274 273 269 268 265 266 267 267 267 267 268 271 273 274 274 274 274 273 273 273 272 273 276 274
272 271 272 273 272 270 270 270 269 268 268 269 268 269 269 268 269 268 269 268 269 269 268 267 267 266 266 266 266 265 266 265 266 274 275 274 272 273 275 276 276 276 274 269 266 269 274 274 274 274 275 275 276 276 276 276 275 275 275 275 273 272
272 272 273 272 272 271 270 270 268 268 267 267 268 267 269 268 271 270 270 269 267 268 268 266 267 265 265 264 264 264 263 264 265 265 271 275 276 275 275 276 276 277 277 277 274 269 267 273 276 276 276 276 277 277 277 277 277 277 277 277 276 271
272 272 271 270 269 269 268 269 268 266 266 266 266 266 267 267 268 270 267 267 267 267 267 266 265 265 265 264 263 262 262 263 263 265 265 267 274 276 276 276 277 277 277 278 278 277 273 272 274 276 276 276 277 277 277 278 278 278 278 278 274 272
271 270 269 269 269 268 267 266 264 263 263 264 265 265 267 266 267 267 266 266 266 266 265 265 265 265 264 264 264 263 263 263 264 264 263 262 261 265 271 275 277 277 277 277 278 277 277 276 275 275 276 276 277 277 278 278 276 278 279 277 273 273
270 269 268 268 267 266 265 262 261 261 262 261 262 264 264 264 265 263 265 267 266 264 265 264 264 264 263 262 263 262 263 263 263 263 263 262 262 263 264 263 268 274 277 275 275 276 277 277 277 276 276 276 277 277 277 278 274 273 274 275 274 273
267 265 264 265 264 263 262 259 259 259 260 259 260 262 262 263 263 262 263 263 264 263 262 262 263 263 263 262 262 262 262 261 261 263 262 261 262 262 261 260 262 265 272 275 276 276 276 277 278 277 276 276 277 277 277 273 272 272 272 271 272 270
Wind_Speed
13 13 12 11 10 10 10 9 9 8 7 8 10 11 11 11 9 8 7 8 8 8 10 10 9 7 8 7 8 8 9 9 8 7 7 6 6 6 6 6 7 7 7 6 5 5 4 3 3 3 3 4 5 4 4 3 3 4 4 2 3 2
14 14 14 14 14 12 10 10 8 10 10 10 9 8 8 8 9 8 9 7 8 8 7 7 7 8 9 9 10 9 9 8 8 8 7 7 6 6 6 6 7 7 7 6 6 5 4 4 3 3 3 3 3 4 5 3 4 4 3 3 3 3
13 12 10 10 8 8 9 10 12 11 10 10 11 13 12 11 10 9 8 8 8 10 10 9 8 9 8 8 8 9 8 7 7 7 7 6 6 7 7 7 8 7 7 6 6 5 4 4 3 3 3 4 4 3 4 3 4 4 3 3 3 3
11 9 9 8 10 11 12 10 10 11 12 11 11 11 11 12 10 10 9 8 9 10 10 9 7 8 8 9 8 8 8 8 8 7 7 7 6 6 7 8 7 7 7 6 6 5 4 3 3 3 3 3 3 3 3 3 3 3 3 3 3 2
12 13 14 14 15 13 13 12 13 13 12 12 11 12 11 11 11 9 9 9 10 10 9 9 9 8 9 9 8 8 8 7 7 6 8 7 6 5 6 8 8 7 7 6 5 5 4 3 3 3 3 3 3 3 3 3 3 3 3 2 1 1
10 11 12 14 13 14 14 12 11 11 11 12 11 13 12 11 10 10 9 9 10 10 10 10 9 10 9 10 8 9 8 8 7 7 7 7 6 7 5 6 7 7 7 6 5 4 4 4 3 3 3 3 3 3 3 3 3 3 2 2 1 1
15 16 15 14 13 12 12 13 12 12 12 12 13 12 11 11 9 11 10 11 12 11 11 11 10 11 10 10 8 9 8 8 8 7 7 7 7 7 7 6 5 7 6 6 5 4 4 4 3 3 3 3 3 3 3 2 2 2 1 1 1 1
14 13 13 12 13 14 13 12 12 12 11 12 11 12 11 11 10 11 11 11 12 12 12 12 11 11 11 11 9 10 9 9 8 8 7 8 9 7 7 8 7 7 7 5 5 4 4 4 4 4 3 3 3 3 3 3 3 2 2 1 0 0
15 15 14 14 13 13 13 13 13 12 12 12 11 11 12 11 11 11 12 12 12 12 12 12 12 11 11 10 10 9 8 9 9 9 9 8 9 9 8 7 7 6 6 5 5 5 5 4 4 4 4 3 3 3 3 2 3 2 1 1 0 0
16 16 16 14 13 12 11 11 12 13 13 14 12 12 12 10 12 12 12 12 12 12 13 12 10 10 10 9 9 9 9 8 8 8 7 8 8 8 8 8 7 5 5 5 5 4 4 4 4 4 3 4 4 3 3 3 3 2 1 0 0 0
18 17 15 15 13 14 14 12 12 11 10 11 12 12 14 13 13 13 13 12 12 12 11 10 9 8 9 9 9 9 9 9 8 8 8 8 7 7 7 7 7 7 6 4 5 4 4 5 5 4 4 4 4 4 4 3 3 2 2 0 0 1
13 14 14 13 15 15 13 13 14 15 15 14 13 13 12 13 13 14 13 13 13 11 10 10 9 10 10 11 11 11 10 9 9 9 8 8 7 7 7 8 7 7 7 7 5 4 4 5 4 5 9 8 5 4 4 4 3 2 2 2 2 1
11 11 12 13 13 14 14 14 13 12 11 12 13 14 13 13 13 14 13 14 12 11 10 11 11 11 12 12 11 9 10 9 8 7 7 7 7 8 8 8 9 8 7 7 6 6 5 5 4 9 12 12 11 6 4 4 3 2 3 3 2 3
14 14 14 15 15 15 14 13 12 12 14 14 13 12 12 13 13 14 13 12 11 11 12 12 12 12 12 11 11 10 10 8 8 8 8 8 8 8 7 8 8 8 7 6 5 6 6 5 7 12 13 12 12 9 5 4 3 3 3 3 3 3
15 17 17 15 15 16 16 14 12 14 14 13 12 10 12 13 13 13 12 12 12 12 12 12 13 12 11 11 11 10 9 10 9 9 9 10 8 7 8 9 9 8 7 7 7 7 6 5 9 13 14 13 13 13 9 4 4 4 3 3 3 3
11 12 14 15 14 13 10 12 14 11 8 9 8 11 11 12 11 11 12 12 12 12 12 12 12 12 12 10 10 9 10 10 11 10 8 7 7 9 8 7 8 8 8 8 8 7 5 6 9 14 14 14 14 13 10 5 5 5 4 4 3 3
11 9 9 10 12 11 11 11 10 10 10 11 12 12 12 12 11 11 12 13 11 10 10 12 11 12 10 10 10 10 10 11 9 9 9 9 10 11 11 11 10 9 7 7 6 6 7 6 11 14 14 14 14 13 10 5 5 5 4 5 6 6
12 14 13 8 9 11 12 13 12 12 13 11 13 12 13 12 13 13 12 12 12 12 12 12 12 10 10 10 10 11 11 11 11 11 9 8 7 6 5 5 5 8 8 7 7 6 8 6 13 15 15 15 15 15 6 5 6 6 5 5 6 5
9 8 7 9 11 11 12 11 12 12 11 12 12 12 12 12 13 14 14 13 12 13 12 12 12 12 12 12 12 13 13 12 11 9 7 9 9 10 9 10 9 8 8 8 8 9 8 6 11 15 15 15 16 11 5 6 5 5 6 6 6 5
5 6 10 10 11 12 10 11 12 12 11 12 11 11 11 12 15 14 13 13 12 13 12 13 13 13 12 12 14 14 12 10 7 9 9 11 11 11 11 8 7 6 8 9 10 10 9 8 10 15 15 16 17 13 7 6 5 6 6 6 6 6
9 8 7 9 10 8 8 10 11 11 11 10 10 11 12 14 15 13 14 14 13 12 12 11 12 12 13 13 14 12 12 12 13 9 8 8 7 9 6 7 8 7 7 8 9 9 10 8 9 15 16 17 17 13 7 7 5 6 7 6 7 6
9 7 8 9 8 7 9 9 11 11 11 10 10 11 14 16 15 13 11 9 10 11 11 11 12 13 13 14 12 11 12 9 7 8 10 8 7 7 7 7 7 9 9 8 8 9 10 9 8 9 17 17 18 19 9 7 7 9 9 7 7 6
7 8 8 6 7 8 9 9 10 10 9 9 10 13 16 13 8 8 10 9 9 10 11 10 12 14 13 13 13 11 8 7 9 7 8 9 7 6 6 8 7 7 7 6 7 8 8 9 9 9 16 17 18 20 16 8 10 8 7 7 8 7
6 6 5 4 8 8 8 9 10 8 8 8 11 15 12 6 8 8 7 8 9 10 10 11 11 11 12 9 7 8 9 7 7 8 8 7 6 8 8 6 7 7 7 6 7 8 9 8 11 8 13 18 19 19 21 11 11 10 7 7 7 7
6 6 5 4 5 6 7 9 9 7 7 9 14 10 5 6 6 7 7 8 9 9 10 10 11 11 8 9 10 11 10 8 8 8 8 8 8 8 8 8 7 7 8 7 7 7 8 8 9 15 11 16 19 20 20 21 13 17 11 9 9 9
5 5 4 4 4 5 6 9 9 7 8 13 7 4 5 5 6 6 7 8 9 9 9 9 10 9 8 10 9 10 10 9 9 8 8 9 9 9 9 8 7 7 8 9 9 8 8 8 8 12 17 14 19 18 20 22 23 21 12 10 8 7
8 6 4 3 4 4 5 6 10 7 10 6 4 5 6 6 6 7 7 8 8 9 8 7 8 9 9 9 10 10 10 8 8 9 7 8 8 8 10 9 8 10 10 9 10 10 9 8 8 8 13 19 17 19 20 21 23 23 22 13 9 9
5 6 6 2 2 4 4 5 7 10 8 3 5 5 6 6 6 7 8 7 7 8 7 8 8 8 8 9 9 11 10 11 11 10 9 9 10 10 10 10 9 10 9 10 11 10 10 7 7 9 8 9 13 14 19 20 21 22 24 21 11 14
6 5 5 6 4 4 4 5 5 4 2 4 4 5 5 6 7 7 5 7 7 5 6 9 8 7 7 7 7 7 7 8 9 9 9 10 11 10 10 10 10 11 10 12 12 11 7 7 7 8 7 8 8 9 9 11 13 20 20 15 11 13
6 7 6 7 6 4 4 4 2 0 1 1 3 5 6 6 6 6 6 5 4 5 5 7 7 8 7 7 8 9 8 7 9 10 12 13 14 13 13 12 11 13 13 13 11 7 5 8 7 8 10 10 9 9 9 9 7 8 8 9 8 7
4 4 5 2 2 2 1 0 0 0 0 0 1 4 5 6 5 5 5 5 5 6 4 6 6 7 7 7 7 8 8 10 11 12 11 9 8 10 12 11 11 11 9 8 7 8 8 7 10 12 8 9 12 11 9 9 9 8 8 10 11 5
4 4 4 2 1 3 4 4 3 3 4 4 4 4 5 5 5 5 6 6 7 6 7 7 7 6 7 7 8 8 7 7 9 9 9 8 8 13 14 10 10 7 6 7 8 8 11 12 9 6 15 18 16 17 17 16 15 14 11 12 18 11
2 2 1 0 1 2 2 2 3 4 4 4 4 5 5 5 5 5 5 6 7 7 7 6 6 6 6 6 6 6 7 7 7 12 16 13 9 12 15 18 18 15 13 10 8 8 16 15 10 12 15 18 20 21 21 19 19 19 19 18 12 11
2 2 2 1 1 1 2 1 2 3 3 4 4 4 4 5 6 6 6 6 5 6 5 6 6 5 6 6 5 6 6 6 7 8 9 14 16 16 17 17 18 18 18 18 15 9 7 13 16 15 15 17 18 19 19 20 20 19 19 19 19 10
2 2 2 3 3 2 1 1 1 2 1 2 3 4 4 4 4 5 4 4 4 4 5 5 5 6 6 6 6 6 5 7 7 8 8 5 10 16 18 18 19 19 18 19 20 18 13 11 13 17 17 16 17 18 18 19 20 19 20 20 15 11
3 3 3 3 2 2 3 4 4 5 5 2 1 3 4 4 4 4 4 4 5 5 5 6 6 6 6 5 6 6 6 6 6 7 6 5 5 6 10 14 18 19 19 19 19 17 17 16 16 15 16 16 16 18 18 18 14 20 22 19 12 10
5 4 4 4 4 5 5 4 5 6 6 5 1 1 1 2 2 2 3 4 4 5 5 5 5 5 5 5 5 5 5 6 5 5 6 6 6 7 7 4 6 11 16 13 12 16 19 19 18 17 16 16 16 16 17 17 12 12 11 12 11 9
6 5 4 4 5 5 6 4 6 6 7 6 4 1 0 1 1 1 2 2 2 2 2 3 4 4 5 5 5 5 5 5 4 5 6 5 5 6 5 4 4 4 5 12 14 14 16 19 19 17 16 17 18 18 18 11 10 8 8 8 8 7
Wind_Direction
184 182 182 178 175 176 173 163 159 157 155 157 156 157 157 154 152 147 147 150 149 150 148 147 144 142 138 135 134 137 138 140 142 140 138 131 134 134 136 134 125 117 111 112 113 108 112 104 97 95 90 106 111 109 102 82 83 83 77 53 79 82
182 179 176 176 175 172 171 164 158 159 157 154 152 145 144 144 148 151 151 153 145 140 134 137 142 144 145 146 144 144 144 146 144 142 142 147 142 147 149 139 128 122 121 119 118 116 110 104 101 99 110 105 111 118 101 99 91 81 83 55 62 81
178 176 174 170 164 164 163 166 167 162 157 159 158 156 156 155 156 154 156 149 145 143 148 148 148 147 144 141 143 139 143 144 144 148 149 140 154 160 152 137 129 125 124 124 120 120 124 123 120 113 107 108 109 117 117 101 94 89 74 84 52 55
170 164 161 161 163 169 170 169 162 164 166 164 157 154 161 157 159 159 155 152 150 151 148 149 147 146 145 143 144 143 147 151 151 153 152 153 162 161 147 133 127 124 124 122 122 124 133 137 130 123 109 118 117 103 112 101 96 99 86 92 76 48
172 172 171 171 173 173 169 170 172 169 164 160 162 160 165 162 159 156 156 153 153 153 152 150 153 151 150 147 149 150 153 153 154 159 155 156 156 151 142 135 128 128 124 121 126 132 141 138 130 137 126 138 131 124 105 117 118 117 107 93 109 100
167 167 172 174 175 176 177 174 168 166 165 164 161 165 162 160 158 156 154 153 153 153 153 157 155 154 154 153 156 156 158 156 159 159 154 157 151 144 136 127 129 125 127 127 134 145 144 142 144 149 158 154 142 135 131 122 111 121 135 143 163 149
176 183 181 178 176 175 173 174 173 168 168 166 166 164 162 157 159 159 160 158 156 161 161 162 161 159 160 157 159 162 161 162 159 160 159 153 149 145 136 128 128 128 130 140 153 159 157 156 164 153 159 159 149 144 144 135 134 126 136 162 167 163
183 180 179 179 182 178 175 175 172 170 167 169 165 161 161 162 160 163 160 163 162 166 168 167 166 167 164 162 163 166 167 164 163 162 166 161 151 147 143 142 146 145 145 150 161 160 164 168 168 171 165 156 145 149 150 152 147 143 136 131 142 136
191 188 184 185 180 177 177 175 173 171 167 166 168 164 161 161 163 165 166 169 170 170 174 173 172 167 166 166 166 165 167 169 168 166 166 168 156 151 149 148 144 144 148 160 157 163 165 171 168 171 173 164 164 163 159 139 135 124 127 124 128 92
187 188 188 181 180 178 176 179 176 173 172 171 167 165 163 165 167 169 172 173 176 177 177 177 170 167 167 164 164 169 171 170 170 168 164 158 157 153 151 152 150 147 149 162 163 167 163 168 173 178 176 173 170 161 154 152 147 141 128 115 61 28
192 190 185 185 176 178 179 175 174 174 173 171 172 169 173 168 167 172 175 178 180 183 177 171 168 163 161 163 166 171 174 175 172 166 165 166 158 152 148 142 143 148 156 157 166 170 172 178 188 183 176 174 177 168 160 147 148 148 158 159 241 262
190 190 185 180 183 181 178 179 181 182 179 177 174 174 173 166 175 174 179 183 185 179 175 171 168 168 167 168 174 176 176 175 172 170 168 166 158 149 147 146 151 157 165 168 173 177 184 191 191 196 195 182 169 164 161 152 158 163 171 191 216 255
188 183 185 188 187 187 186 188 186 181 179 178 179 179 174 172 175 182 181 186 182 176 173 172 176 171 175 177 175 176 173 173 173 172 169 162 158 157 155 156 163 169 169 172 175 187 196 196 190 205 209 201 188 168 167 169 182 175 187 198 204 217
183 183 189 190 189 188 189 187 184 182 190 185 183 178 171 178 181 184 186 183 177 178 178 179 174 176 179 176 181 176 177 172 171 175 173 166 164 166 159 167 174 169 169 168 177 192 199 198 200 209 211 206 197 177 172 174 178 189 197 200 205 212
187 189 190 190 191 191 194 184 175 190 190 185 182 165 176 184 186 184 183 183 183 183 182 180 179 181 181 184 179 176 173 175 177 177 173 179 175 158 171 181 169 178 174 173 185 198 198 194 207 212 212 209 206 198 178 177 184 193 200 206 209 212
194 196 195 194 193 191 176 178 188 185 174 173 166 179 183 184 186 185 187 186 189 185 182 182 182 185 186 180 176 176 179 181 188 183 179 166 159 171 177 176 179 176 182 186 190 195 195 197 208 213 213 210 207 206 198 167 195 204 205 212 214 222
194 188 180 187 184 175 169 179 178 169 172 175 179 182 180 185 184 189 190 192 190 182 183 186 187 189 183 179 179 181 187 189 185 182 181 176 178 180 186 184 184 189 184 187 186 188 200 205 206 214 216 211 209 208 201 174 201 204 212 218 222 227
189 189 193 167 154 171 178 182 172 172 183 177 181 181 184 183 187 193 192 195 189 188 188 187 189 187 182 181 182 186 192 193 190 187 182 178 185 189 176 192 187 182 186 186 182 187 209 210 206 212 217 213 209 210 196 180 200 209 213 211 213 214
188 182 152 159 170 170 183 175 172 177 173 178 187 183 184 183 192 197 197 195 190 191 190 188 187 189 187 186 186 194 196 192 193 191 179 181 189 181 190 193 191 187 181 182 187 195 210 206 209 211 215 214 210 207 183 194 199 207 211 218 213 214
157 154 159 164 176 181 173 169 173 172 177 183 181 180 185 190 201 199 194 196 194 192 189 190 189 190 190 188 195 198 199 195 195 193 184 188 186 192 200 188 186 187 186 186 192 197 200 207 209 211 215 214 212 204 188 194 193 212 215 217 219 214
158 158 153 159 174 176 160 160 162 168 179 179 179 181 188 200 205 195 196 200 195 192 191 190 191 193 192 195 200 197 196 196 197 191 183 200 194 199 180 183 187 192 195 198 196 192 199 208 209 213 215 215 214 209 177 192 197 214 221 213 218 217
126 134 149 168 172 145 149 150 159 171 176 179 175 185 201 206 204 199 199 193 188 190 191 192 193 196 195 200 200 198 203 193 172 182 189 197 195 190 186 188 193 194 202 194 190 201 204 204 211 214 215 215 215 212 190 183 195 217 216 210 210 211
133 150 161 155 142 145 148 151 157 174 177 172 178 201 210 207 191 188 194 187 188 192 195 195 195 198 202 200 200 196 188 179 187 178 185 195 192 185 188 193 199 204 207 195 203 203 212 207 207 213 214 217 216 215 206 189 208 215 209 210 211 209
99 101 101 125 144 147 150 153 162 170 162 172 198 212 209 183 187 185 180 184 191 195 196 197 201 201 202 194 173 176 191 191 180 187 190 185 186 195 201 197 199 205 211 208 209 213 218 216 212 205 219 219 220 218 216 198 205 205 203 213 215 214
117 126 131 130 135 141 150 149 157 159 170 185 215 211 179 183 173 174 180 187 193 196 197 199 197 197 190 185 184 184 193 182 182 187 178 180 187 197 205 206 203 204 215 218 223 222 222 218 221 217 217 223 222 221 220 220 208 212 210 208 216 212
117 115 111 120 126 137 146 153 154 166 173 212 206 139 157 160 167 166 180 193 198 197 199 199 196 194 189 186 181 187 188 186 187 181 187 187 187 195 206 214 203 208 219 220 227 226 222 218 213 225 222 221 224 222 221 224 224 215 210 209 217 212
143 131 120 121 132 138 148 152 155 162 196 218 137 170 155 163 159 172 187 195 198 198 200 190 192 193 192 188 179 185 191 187 176 187 194 181 196 200 209 215 197 210 218 221 228 228 221 214 213 219 227 225 224 222 222 225 227 226 220 218 215 213
120 135 143 151 158 157 160 168 153 171 214 143 164 164 159 150 161 178 196 195 196 199 182 187 198 195 194 187 189 195 192 185 184 192 187 188 202 204 210 213 201 215 217 225 231 230 223 208 206 217 220 229 230 229 226 226 230 232 229 227 219 216
133 146 158 175 212 190 195 180 203 188 120 158 159 153 152 162 174 189 190 197 198 188 182 191 193 192 190 190 193 195 189 185 188 191 190 196 201 207 212 214 208 215 217 226 231 229 214 208 209 212 211 214 216 222 221 223 231 234 233 235 233 233
156 167 174 196 204 199 200 206 213 117 58 96 148 143 145 159 176 183 195 195 187 189 190 198 190 182 191 196 189 192 198 199 191 193 201 198 201 202 213 211 214 216 217 223 229 220 207 221 215 213 208 209 206 210 210 211 211 221 224 226 224 222
164 175 195 185 103 145 166 326 21 65 162 91 122 141 145 164 172 170 175 182 174 195 190 192 187 194 193 199 207 221 209 196 196 207 222 225 203 204 206 208 221 225 227 224 221 202 225 226 224 225 205 214 207 202 196 198 205 207 219 224 222 214
162 175 212 230 117 149 175 193 198 195 190 167 163 152 157 167 167 177 189 184 187 191 184 194 198 194 194 195 203 211 243 254 224 220 218 226 206 219 228 219 225 220 194 215 226 198 213 226 231 201 208 215 213 213 209 208 205 206 210 218 223 215
170 180 216 249 126 134 156 183 208 201 204 182 176 172 179 165 178 198 203 187 201 193 191 191 196 201 200 203 200 204 217 242 259 239 232 229 219 226 229 232 236 233 216 202 232 225 228 238 236 213 210 212 213 213 214 212 211 212 213 213 212 223
186 191 223 209 171 158 168 183 234 216 208 190 184 179 175 184 186 205 214 207 207 194 193 193 193 187 196 207 200 201 208 221 240 265 251 242 237 234 234 237 239 240 239 231 224 210 231 236 235 225 217 218 219 218 217 217 216 216 214 213 209 217
185 175 178 177 171 162 158 152 345 339 302 209 179 165 179 198 203 221 226 210 201 200 195 188 191 195 194 198 197 207 199 209 220 240 257 260 249 244 241 242 242 243 243 244 247 238 217 212 222 228 228 225 223 222 222 221 221 220 217 215 218 218
149 160 166 163 155 132 107 68 9 1 345 333 190 170 191 201 212 225 217 209 204 194 202 195 197 195 203 200 199 200 198 215 215 230 238 247 275 284 261 248 243 244 246 247 246 246 244 236 229 229 229 230 230 227 224 222 225 228 226 223 223 226
96 73 69 91 91 89 80 54 2 346 344 355 5 167 205 222 229 236 240 229 201 197 204 200 195 196 195 192 197 199 203 213 214 213 221 223 225 233 242 247 252 249 243 244 250 254 252 249 242 236 232 234 231 227 226 228 231 231 234 233 233 224
79 65 43 59 76 84 80 40 358 349 347 349 8 35 321 281 241 236 237 257 246 206 196 188 193 189 189 195 203 200 207 202 196 208 221 223 228 233 244 268 247 238 259 258 258 260 256 250 246 238 232 232 231 230 228 230 230 228 227 227 235 228